Regional Weather Roundup
Issued by NWS

Home | Current Version | Previous Version | Graphics & Text | Print | Product List | Glossary On
Versions: 1 2 3 4 5 6 7 8 9 10 11 12 13 14 15 16 17 18 19 20 21 22 23 24 25 26 27 28 29 30 31 32 33 34 35 36 37 38 39 40 41 42 43 44 45 46 47 48 49 50
000
ASUS45 KCYS 270710
RWRWY

WYOMING REGIONAL WEATHER ROUNDUP
NATIONAL WEATHER SERVICE CHEYENNE WY
1200 AM MST FRI FEB 27 2015

NOTE:  "FAIR" INDICATES FEW OR NO CLOUDS BELOW 12,000 FEET
WITH NO SIGNIFICANT WEATHER AND/OR OBSTRUCTIONS TO VISIBILITY.

WYZ001-270800-
YELLOWSTONE NATIONAL PARK

CITY           SKY/WX    TMP DP  RH WIND       PRES   REMARKS
LK YELLOWSTONE   N/A     -7 -12  79 W3        29.85F
W YELLOWSTONE  NOT AVBL

$$
WYZ002>013-054>058-071-098>099-270800-
NORTHERN WYOMING

CITY           SKY/WX    TMP DP  RH WIND       PRES   REMARKS
JACKSON        CLOUDY    12   7  79 CALM      29.88S
CODY           FAIR       3   1  92 S7        30.01F WCI  -9
GREYBULL       CLOUDY    13   5  70 NW5       30.11F WCI   5
WORLAND        CLOUDY    13   8  81 S6        30.09F WCI   4
SHERIDAN       FAIR      -7 -11  83 N3        30.13F
BUFFALO        MOCLDY     6   1  80 S16       30.05F WCI -12
GILLETTE       FAIR       2  -4  76 S15       30.15F WCI -17
HULETT         FAIR      -4  -8  84 CALM      30.19F
NEWCASTLE      FAIR       0  -6  78 MISG      30.24F

$$
WYZ014>020-022>026-101>103-270800-
CENTRAL WYOMING

CITY           SKY/WX    TMP DP  RH WIND       PRES   REMARKS
BIG PINEY      LGT SNOW  10   5  80 S10       29.91F WCI  -4
PINEDALE       LGT SNOW  12   9  85 S5        29.91F WCI   4
DUBOIS         LGT SNOW   1   0  92 CALM      29.89F
LANDER         FAIR       2  -5  72 W7        30.01F WCI -11
RIVERTON       FAIR      -1  -5  82 N7        30.03F WCI -14
CASPER         CLOUDY     0  -4  83 NE5       30.05F WCI -10
DOUGLAS        CLOUDY     7   3  84 SE21      30.11F WCI -13

$$
WYZ021-027>030-104>119-270800-
SOUTHERN WYOMING

CITY           SKY/WX    TMP DP  RH WIND       PRES   REMARKS
EVANSTON       CLOUDY    16  14  92 E12       29.85F WCI   3
FORT BRIDGER   CLOUDY    12  11  95 NE6       29.91S WCI   3
ROCK SPRINGS   MOCLDY     5   1  83 E8        29.92F WCI  -8
DIXON          FAIR      14   8  78 CALM      29.90S
RAWLINS        FAIR       3  -2  79 NE12      29.92S WCI -13
SARATOGA       FAIR       1   0  92 W5        29.89F WCI  -8
LARAMIE        FAIR       2  -3  80 SE23      29.89F WCI -21
CHEYENNE       LGT SNOW   6   2  83 S15       30.03F FOG     WCI -12
TORRINGTON     CLOUDY     7   1  76 SE14      30.22F WCI -10
PINE BLUFFS    CLOUDY     7   1  78 SE13G20   30.15F WCI  -9

$$


USA.gov is the U.S. government's official web portal to all federal, state and local government web resources and services.